Wetterdaten: Sonntag, 29.07.2018
Datum Zeit Temp. A. Aussen2m Boden Feuchte A. Feuchte 2 Luftdruck Regen Wind Richtung Richtung Sonnenschein
29.07.2018 00:00 21,0 C 25,8 C 10,8 C 48 % 57 % 1010,6 hPa 0,0 l/m 7,9 km/h (2 Bft) N-NO 20 0 min
29.07.2018 00:05 20,9 C 25,8 C 10,8 C 48 % 57 % 1010,6 hPa 0,0 l/m 7,3 km/h (2 Bft) NO 50 0 min
29.07.2018 00:10 20,9 C 25,8 C 10,8 C 48 % 57 % 1010,6 hPa 0,0 l/m 7,9 km/h (2 Bft) N-NO 30 0 min
29.07.2018 00:15 20,8 C 25,8 C 10,8 C 48 % 57 % 1010,6 hPa 0,0 l/m 6,1 km/h (2 Bft) N 355 0 min
29.07.2018 00:20 20,8 C 25,8 C 10,8 C 48 % 57 % 1010,6 hPa 0,0 l/m 7,3 km/h (2 Bft) NO 45 0 min
29.07.2018 00:25 20,8 C 25,8 C 10,8 C 48 % 57 % 1010,6 hPa 0,0 l/m 8,5 km/h (2 Bft) N-NW 340 0 min
29.07.2018 00:30 20,7 C 25,8 C 10,8 C 48 % 57 % 1010,6 hPa 0,0 l/m 12,7 km/h (3 Bft) O-NO 65 0 min
29.07.2018 00:35 20,6 C 25,8 C 10,8 C 48 % 57 % 1011,6 hPa 0,0 l/m 9,7 km/h (2 Bft) N-NO 15 0 min
29.07.2018 00:40 20,6 C 25,8 C 10,8 C 48 % 57 % 1011,6 hPa 0,0 l/m 11,5 km/h (2 Bft) N-NO 15 0 min
29.07.2018 00:45 20,5 C 25,8 C 10,8 C 48 % 57 % 1011,6 hPa 0,0 l/m 6,7 km/h (2 Bft) N 10 0 min
29.07.2018 00:50 20,4 C 25,8 C 10,8 C 49 % 57 % 1011,6 hPa 0,0 l/m 4,8 km/h (1 Bft) N 0 0 min
29.07.2018 00:55 20,3 C 25,8 C 10,8 C 49 % 57 % 1011,6 hPa 0,0 l/m 6,7 km/h (2 Bft) N-NO 15 0 min
29.07.2018 01:00 20,2 C 25,8 C 10,8 C 49 % 57 % 1011,6 hPa 0,0 l/m 6,1 km/h (2 Bft) N-NO 20 0 min
29.07.2018 01:05 20,2 C 25,8 C 10,8 C 50 % 57 % 1011,6 hPa 0,0 l/m 4,8 km/h (1 Bft) N 5 0 min
29.07.2018 01:10 20,1 C 25,8 C 10,8 C 50 % 57 % 1011,6 hPa 0,0 l/m 6,7 km/h (2 Bft) N-NO 15 0 min
29.07.2018 01:15 20,1 C 25,8 C 10,8 C 51 % 57 % 1011,6 hPa 0,0 l/m 6,7 km/h (2 Bft) N-NO 20 0 min
29.07.2018 01:20 20,1 C 25,8 C 10,8 C 51 % 57 % 1011,6 hPa 0,0 l/m 7,3 km/h (2 Bft) N 10 0 min
29.07.2018 01:25 20,0 C 25,8 C 10,8 C 52 % 57 % 1011,6 hPa 0,0 l/m 7,3 km/h (2 Bft) N-NO 20 0 min
29.07.2018 01:30 20,0 C 25,8 C 10,8 C 52 % 57 % 1011,6 hPa 0,0 l/m 5,4 km/h (2 Bft) N 0 0 min
29.07.2018 01:35 19,9 C 25,8 C 10,8 C 53 % 57 % 1011,6 hPa 0,0 l/m 4,8 km/h (1 Bft) N 10 0 min
29.07.2018 01:40 19,8 C 25,8 C 10,8 C 53 % 57 % 1011,6 hPa 0,0 l/m 6,1 km/h (2 Bft) N-NO 20 0 min
29.07.2018 01:45 19,8 C 25,8 C 10,8 C 53 % 57 % 1011,6 hPa 0,0 l/m 3,0 km/h (1 Bft) N-NO 25 0 min
29.07.2018 01:50 19,8 C 25,8 C 10,8 C 53 % 57 % 1012,6 hPa 0,0 l/m 4,2 km/h (1 Bft) N 10 0 min
29.07.2018 01:55 19,8 C 25,8 C 10,8 C 53 % 57 % 1012,6 hPa 0,0 l/m 5,4 km/h (2 Bft) N 10 0 min
29.07.2018 02:00 19,8 C 25,8 C 10,8 C 53 % 57 % 1012,6 hPa 0,0 l/m 4,2 km/h (1 Bft) NO 35 0 min
29.07.2018 02:05 19,8 C 25,8 C 10,8 C 53 % 57 % 1011,6 hPa 0,0 l/m 4,2 km/h (1 Bft) N 5 0 min
29.07.2018 02:10 19,8 C 25,8 C 10,8 C 54 % 57 % 1011,6 hPa 0,0 l/m 3,6 km/h (1 Bft) N-NO 15 0 min
29.07.2018 02:15 19,8 C 25,8 C 10,8 C 53 % 57 % 1011,6 hPa 0,0 l/m 3,6 km/h (1 Bft) O-NO 60 0 min
29.07.2018 02:20 19,8 C 25,8 C 10,8 C 53 % 57 % 1011,6 hPa 0,0 l/m 5,4 km/h (2 Bft) N 10 0 min
29.07.2018 02:25 19,8 C 25,8 C 10,8 C 53 % 57 % 1011,6 hPa 0,0 l/m 6,1 km/h (2 Bft) N 0 0 min
29.07.2018 02:30 19,8 C 25,8 C 10,8 C 53 % 57 % 1011,6 hPa 0,0 l/m 8,5 km/h (2 Bft) N-NO 25 0 min
29.07.2018 02:35 19,9 C 25,8 C 10,8 C 52 % 57 % 1011,6 hPa 0,0 l/m 9,7 km/h (2 Bft) NO 40 0 min
29.07.2018 02:40 19,9 C 25,8 C 10,8 C 52 % 57 % 1011,6 hPa 0,0 l/m 6,7 km/h (2 Bft) N-NO 25 0 min
29.07.2018 02:45 19,9 C 25,8 C 10,8 C 52 % 57 % 1011,6 hPa 0,0 l/m 7,3 km/h (2 Bft) N-NW 330 0 min
29.07.2018 02:50 19,8 C 25,8 C 10,8 C 53 % 57 % 1011,6 hPa 0,0 l/m 10,9 km/h (2 Bft) N-NW 330 0 min
29.07.2018 02:55 19,8 C 25,8 C 10,8 C 53 % 57 % 1011,6 hPa 0,0 l/m 10,9 km/h (2 Bft) N 355 0 min
29.07.2018 03:00 19,8 C 25,8 C 10,8 C 53 % 57 % 1011,6 hPa 0,0 l/m 10,3 km/h (2 Bft) N 5 0 min
29.07.2018 03:05 19,8 C 25,8 C 10,8 C 53 % 57 % 1011,6 hPa 0,0 l/m 7,3 km/h (2 Bft) N-NO 20 0 min
29.07.2018 03:10 19,8 C 25,8 C 10,8 C 53 % 57 % 1011,6 hPa 0,0 l/m 10,9 km/h (2 Bft) N 0 0 min
29.07.2018 03:15 19,8 C 25,8 C 10,8 C 53 % 57 % 1011,6 hPa 0,0 l/m 6,1 km/h (2 Bft) N 355 0 min
29.07.2018 03:20 19,8 C 25,8 C 10,8 C 53 % 57 % 1011,6 hPa 0,0 l/m 4,2 km/h (1 Bft) O-NO 65 0 min
29.07.2018 03:25 19,8 C 25,8 C 10,8 C 53 % 57 % 1011,6 hPa 0,0 l/m 0,0 km/h (0 Bft) O-SO 105 0 min
29.07.2018 03:30 19,8 C 25,8 C 10,8 C 53 % 57 % 1011,6 hPa 0,0 l/m 3,6 km/h (1 Bft) N-NO 15 0 min
29.07.2018 03:35 19,8 C 25,8 C 10,8 C 52 % 57 % 1011,6 hPa 0,0 l/m 4,2 km/h (1 Bft) O 95 0 min
29.07.2018 03:40 19,8 C 25,8 C 10,8 C 52 % 57 % 1011,6 hPa 0,0 l/m 3,0 km/h (1 Bft) O-NO 65 0 min
29.07.2018 03:45 19,8 C 25,8 C 10,8 C 51 % 57 % 1011,6 hPa 0,0 l/m 3,0 km/h (1 Bft) NO 55 0 min
29.07.2018 03:50 19,8 C 25,8 C 10,8 C 51 % 57 % 1011,6 hPa 0,0 l/m 4,8 km/h (1 Bft) O 90 0 min
29.07.2018 03:55 20,0 C 25,8 C 10,8 C 50 % 57 % 1011,6 hPa 0,0 l/m 4,2 km/h (1 Bft) N-NO 30 0 min
29.07.2018 04:00 20,1 C 25,8 C 10,8 C 51 % 57 % 1011,6 hPa 0,0 l/m 5,4 km/h (2 Bft) N-NO 15 0 min
29.07.2018 04:05 20,2 C 25,8 C 10,8 C 54 % 57 % 1011,6 hPa 0,0 l/m 9,7 km/h (2 Bft) NO 55 0 min
29.07.2018 04:10 20,3 C 25,8 C 10,8 C 56 % 57 % 1011,6 hPa 0,0 l/m 10,3 km/h (2 Bft) S 175 0 min
29.07.2018 04:15 20,2 C 25,8 C 10,8 C 58 % 57 % 1011,6 hPa 0,0 l/m 7,3 km/h (2 Bft) S-SO 155 0 min
29.07.2018 04:20 20,1 C 25,8 C 10,8 C 58 % 57 % 1011,6 hPa 0,0 l/m 7,3 km/h (2 Bft) NO 45 0 min
29.07.2018 04:25 20,0 C 25,8 C 10,8 C 58 % 57 % 1011,6 hPa 0,0 l/m 9,1 km/h (2 Bft) O-NO 70 0 min
29.07.2018 04:30 20,0 C 25,8 C 10,8 C 59 % 57 % 1011,6 hPa 0,0 l/m 8,5 km/h (2 Bft) SO 135 0 min
29.07.2018 04:35 19,9 C 25,8 C 10,8 C 60 % 57 % 1011,6 hPa 0,0 l/m 7,3 km/h (2 Bft) O 80 0 min
29.07.2018 04:40 19,8 C 25,8 C 10,8 C 61 % 57 % 1011,6 hPa 0,0 l/m 5,4 km/h (2 Bft) O-SO 120 0 min
29.07.2018 04:45 19,8 C 25,8 C 10,8 C 62 % 57 % 1011,6 hPa 0,0 l/m 3,6 km/h (1 Bft) O-NO 60 0 min
29.07.2018 04:50 19,7 C 25,8 C 10,8 C 62 % 57 % 1011,6 hPa 0,0 l/m 10,9 km/h (2 Bft) SO 130 0 min
29.07.2018 04:55 19,7 C 25,8 C 10,8 C 63 % 57 % 1011,6 hPa 0,0 l/m 8,5 km/h (2 Bft) O-SO 105 0 min
29.07.2018 05:00 19,7 C 25,8 C 10,8 C 65 % 57 % 1011,6 hPa 0,0 l/m 5,4 km/h (2 Bft) NO 50 0 min
29.07.2018 05:05 19,6 C 25,8 C 10,8 C 65 % 57 % 1011,6 hPa 0,0 l/m 6,7 km/h (2 Bft) NO 55 0 min
29.07.2018 05:10 19,6 C 25,8 C 10,8 C 67 % 57 % 1011,6 hPa 0,0 l/m 7,3 km/h (2 Bft) O-SO 105 0 min
29.07.2018 05:15 19,5 C 25,8 C 10,8 C 68 % 57 % 1011,6 hPa 0,0 l/m 4,2 km/h (1 Bft) O-SO 115 0 min
29.07.2018 05:20 19,5 C 25,8 C 10,8 C 69 % 57 % 1011,6 hPa 0,0 l/m 7,3 km/h (2 Bft) NO 55 0 min
29.07.2018 05:25 19,4 C 25,8 C 10,8 C 70 % 57 % 1011,6 hPa 0,0 l/m 9,1 km/h (2 Bft) O-NO 60 0 min
29.07.2018 05:30 19,4 C 25,8 C 10,8 C 70 % 57 % 1011,6 hPa 0,0 l/m 8,5 km/h (2 Bft) O-SO 115 0 min
29.07.2018 05:35 19,4 C 25,8 C 10,8 C 70 % 57 % 1011,6 hPa 0,0 l/m 3,6 km/h (1 Bft) N-NO 30 0 min
29.07.2018 05:40 19,4 C 25,8 C 10,8 C 70 % 57 % 1011,6 hPa 0,0 l/m 6,1 km/h (2 Bft) SO 125 0 min
29.07.2018 05:45 19,3 C 25,8 C 10,8 C 71 % 57 % 1011,6 hPa 0,0 l/m 10,3 km/h (2 Bft) O 85 0 min
29.07.2018 05:50 19,3 C 25,8 C 10,8 C 71 % 57 % 1011,6 hPa 0,0 l/m 6,7 km/h (2 Bft) SO 130 0 min
29.07.2018 05:55 19,3 C 25,8 C 10,8 C 71 % 57 % 1011,6 hPa 0,0 l/m 3,6 km/h (1 Bft) O 100 0 min
29.07.2018 06:00 19,3 C 25,8 C 10,8 C 72 % 57 % 1011,6 hPa 0,0 l/m 4,8 km/h (1 Bft) W-SW 245 0 min
29.07.2018 06:05 19,3 C 25,8 C 10,8 C 72 % 57 % 1010,6 hPa 0,0 l/m 4,8 km/h (1 Bft) NO 40 0 min
29.07.2018 06:10 19,3 C 25,8 C 10,8 C 72 % 57 % 1010,6 hPa 0,0 l/m 6,7 km/h (2 Bft) O 80 0 min
29.07.2018 06:15 19,4 C 25,8 C 10,8 C 72 % 57 % 1010,6 hPa 0,0 l/m 9,1 km/h (2 Bft) NO 55 0 min
29.07.2018 06:20 19,5 C 25,8 C 10,8 C 72 % 57 % 1010,6 hPa 0,0 l/m 13,3 km/h (3 Bft) O 85 0 min
29.07.2018 06:25 19,5 C 25,8 C 10,8 C 72 % 57 % 1010,6 hPa 0,0 l/m 8,5 km/h (2 Bft) NO 35 0 min
29.07.2018 06:30 19,6 C 25,8 C 10,8 C 72 % 57 % 1010,6 hPa 0,0 l/m 15,7 km/h (3 Bft) O-SO 110 0 min
29.07.2018 06:35 19,7 C 25,8 C 10,8 C 72 % 57 % 1010,6 hPa 0,0 l/m 13,3 km/h (3 Bft) O-SO 105 0 min
29.07.2018 06:40 19,8 C 25,8 C 10,8 C 71 % 57 % 1010,6 hPa 0,0 l/m 17,6 km/h (3 Bft) O-SO 110 0 min
29.07.2018 06:45 19,9 C 25,8 C 10,8 C 71 % 57 % 1010,6 hPa 0,0 l/m 13,3 km/h (3 Bft) SO 130 0 min
29.07.2018 06:50 19,9 C 25,8 C 10,8 C 71 % 57 % 1009,6 hPa 0,0 l/m 10,9 km/h (2 Bft) O-SO 115 0 min
29.07.2018 06:55 20,0 C 25,8 C 10,8 C 71 % 57 % 1009,6 hPa 0,0 l/m 11,5 km/h (2 Bft) O-SO 115 0 min
29.07.2018 07:00 20,1 C 25,8 C 10,8 C 71 % 57 % 1009,6 hPa 0,0 l/m 13,3 km/h (3 Bft) O 95 0 min
29.07.2018 07:05 20,1 C 25,8 C 10,8 C 70 % 57 % 1009,6 hPa 0,0 l/m 15,7 km/h (3 Bft) S 190 0 min
29.07.2018 07:10 20,1 C 25,8 C 10,8 C 70 % 57 % 1009,6 hPa 0,0 l/m 8,5 km/h (2 Bft) SO 135 0 min
29.07.2018 07:15 20,1 C 25,8 C 10,8 C 71 % 57 % 1009,6 hPa 0,0 l/m 7,3 km/h (2 Bft) S 170 0 min
29.07.2018 07:20 20,0 C 25,8 C 10,8 C 71 % 57 % 1010,6 hPa 0,0 l/m 9,7 km/h (2 Bft) S-SW 210 0 min
29.07.2018 07:25 20,1 C 25,8 C 10,8 C 71 % 57 % 1010,6 hPa 0,0 l/m 6,7 km/h (2 Bft) S-SO 155 0 min
29.07.2018 07:30 20,1 C 25,8 C 10,8 C 71 % 57 % 1010,6 hPa 0,0 l/m 3,6 km/h (1 Bft) O 100 0 min
29.07.2018 07:35 20,2 C 25,8 C 10,8 C 71 % 57 % 1010,6 hPa 0,0 l/m 3,6 km/h (1 Bft) S-SO 165 0 min
29.07.2018 07:40 20,3 C 25,8 C 10,8 C 70 % 57 % 1010,6 hPa 0,0 l/m 6,1 km/h (2 Bft) SO 130 0 min
29.07.2018 07:45 20,5 C 25,8 C 10,8 C 70 % 57 % 1010,6 hPa 0,0 l/m 15,1 km/h (3 Bft) SO 145 0 min
29.07.2018 07:50 20,6 C 25,8 C 10,8 C 69 % 57 % 1010,6 hPa 0,0 l/m 15,7 km/h (3 Bft) S-SO 155 0 min
29.07.2018 07:55 20,7 C 25,8 C 10,8 C 68 % 57 % 1010,6 hPa 0,0 l/m 10,9 km/h (2 Bft) S-SO 165 0 min
29.07.2018 08:00 20,9 C 25,8 C 10,8 C 68 % 57 % 1010,6 hPa 0,0 l/m 10,3 km/h (2 Bft) S-SW 200 0 min
29.07.2018 08:05 20,7 C 25,8 C 10,8 C 67 % 57 % 1010,6 hPa 0,0 l/m 19,4 km/h (3 Bft) O-SO 120 0 min
29.07.2018 08:10 20,6 C 25,8 C 10,8 C 67 % 57 % 1010,6 hPa 0,0 l/m 14,5 km/h (3 Bft) S-SW 195 0 min
29.07.2018 08:15 20,6 C 25,8 C 10,8 C 67 % 57 % 1010,6 hPa 0,0 l/m 13,9 km/h (3 Bft) S 175 1 min
29.07.2018 08:20 20,8 C 25,8 C 10,8 C 66 % 57 % 1010,6 hPa 0,0 l/m 18,8 km/h (3 Bft) SO 135 5 min
29.07.2018 08:25 20,8 C 25,8 C 10,8 C 66 % 57 % 1010,6 hPa 0,0 l/m 19,4 km/h (3 Bft) S-SO 155 4 min
29.07.2018 08:30 20,8 C 25,8 C 10,8 C 66 % 57 % 1010,6 hPa 0,0 l/m 23,6 km/h (4 Bft) O-SO 120 5 min
29.07.2018 08:35 21,0 C 25,8 C 10,8 C 66 % 57 % 1010,6 hPa 0,0 l/m 18,2 km/h (3 Bft) S-SW 195 5 min
29.07.2018 08:40 21,6 C 25,8 C 10,8 C 65 % 57 % 1010,6 hPa 0,0 l/m 14,5 km/h (3 Bft) S-SO 150 4 min
29.07.2018 08:45 21,6 C 25,8 C 10,8 C 64 % 57 % 1010,6 hPa 0,0 l/m 21,2 km/h (4 Bft) S 170 2 min
29.07.2018 08:50 21,5 C 25,8 C 10,8 C 63 % 57 % 1010,6 hPa 0,0 l/m 18,2 km/h (3 Bft) SO 145 2 min
29.07.2018 08:55 21,6 C 25,8 C 10,8 C 62 % 57 % 1010,6 hPa 0,0 l/m 15,1 km/h (3 Bft) SO 130 5 min
29.07.2018 09:00 21,6 C 25,8 C 10,8 C 61 % 57 % 1010,6 hPa 0,0 l/m 19,4 km/h (3 Bft) O-SO 120 5 min
29.07.2018 09:05 21,8 C 25,8 C 10,8 C 60 % 57 % 1010,6 hPa 0,0 l/m 15,7 km/h (3 Bft) S-SO 155 0 min
29.07.2018 09:10 21,9 C 25,8 C 10,8 C 60 % 57 % 1010,6 hPa 0,0 l/m 18,2 km/h (3 Bft) SO 145 5 min
29.07.2018 09:15 22,0 C 25,8 C 10,8 C 59 % 57 % 1010,6 hPa 0,0 l/m 19,4 km/h (3 Bft) SW 225 5 min
29.07.2018 09:20 22,3 C 25,8 C 10,8 C 57 % 57 % 1009,6 hPa 0,0 l/m 23,6 km/h (4 Bft) SO 130 5 min
29.07.2018 09:22 22,3 C 25,8 C 10,8 C 57 % 57 % 1009,6 hPa 0,0 l/m 23,6 km/h (4 Bft) SO 130 0 min
29.07.2018 09:25 22,5 C 25,8 C 10,8 C 56 % 57 % 1009,6 hPa 0,0 l/m 23,0 km/h (4 Bft) SO 135 3 min
29.07.2018 09:30 22,5 C 25,8 C 10,8 C 54 % 57 % 1009,6 hPa 0,0 l/m 26,7 km/h (4 Bft) S 175 7 min
29.07.2018 09:35 22,6 C 25,8 C 10,8 C 51 % 57 % 1010,6 hPa 0,0 l/m 20,6 km/h (4 Bft) S 175 3 min
29.07.2018 09:40 22,9 C 25,8 C 10,8 C 50 % 57 % 1010,6 hPa 0,0 l/m 24,2 km/h (4 Bft) S-SW 205 7 min
29.07.2018 09:45 22,9 C 25,8 C 10,8 C 49 % 57 % 1010,6 hPa 0,0 l/m 20,0 km/h (4 Bft) S-SO 160 3 min
29.07.2018 09:50 22,9 C 25,8 C 10,8 C 48 % 57 % 1010,6 hPa 0,0 l/m 16,3 km/h (3 Bft) SW 235 5 min
29.07.2018 09:55 23,1 C 25,8 C 10,8 C 48 % 57 % 1010,6 hPa 0,0 l/m 18,2 km/h (3 Bft) SO 125 4 min
29.07.2018 10:00 23,2 C 25,8 C 10,8 C 46 % 57 % 1010,6 hPa 0,0 l/m 23,6 km/h (4 Bft) S-SO 160 6 min
29.07.2018 10:05 23,6 C 25,8 C 10,8 C 46 % 57 % 1010,6 hPa 0,0 l/m 21,8 km/h (4 Bft) S-SW 210 4 min
29.07.2018 10:10 23,7 C 25,8 C 10,8 C 45 % 57 % 1010,6 hPa 0,0 l/m 18,2 km/h (3 Bft) S-SO 150 6 min
29.07.2018 10:16 23,6 C 25,8 C 10,8 C 43 % 57 % 1010,6 hPa 0,0 l/m 17,6 km/h (3 Bft) S-SW 200 7 min
29.07.2018 10:21 23,6 C 25,8 C 10,8 C 43 % 57 % 1010,6 hPa 0,0 l/m 19,4 km/h (3 Bft) S 170 5 min
29.07.2018 10:26 23,9 C 25,8 C 10,8 C 42 % 57 % 1010,6 hPa 0,0 l/m 19,4 km/h (3 Bft) SW 220 5 min
29.07.2018 10:30 24,2 C 25,8 C 10,8 C 42 % 57 % 1010,6 hPa 0,0 l/m 18,2 km/h (3 Bft) S 180 5 min
29.07.2018 10:35 24,5 C 25,8 C 10,8 C 41 % 57 % 1010,6 hPa 0,0 l/m 16,9 km/h (3 Bft) S-SW 210 5 min
29.07.2018 10:45 24,5 C 25,8 C 10,8 C 39 % 57 % 1010,6 hPa 0,0 l/m 19,4 km/h (3 Bft) SO 145 10 min
29.07.2018 10:51 24,9 C 25,8 C 10,8 C 38 % 57 % 1010,6 hPa 0,0 l/m 19,4 km/h (3 Bft) S-SO 150 5 min
29.07.2018 10:56 24,8 C 25,8 C 10,8 C 38 % 57 % 1010,6 hPa 0,0 l/m 20,0 km/h (4 Bft) S-SW 210 3 min
29.07.2018 11:01 25,1 C 25,8 C 10,8 C 38 % 57 % 1010,6 hPa 0,0 l/m 15,1 km/h (3 Bft) W 265 5 min
29.07.2018 11:06 25,1 C 25,8 C 10,8 C 38 % 57 % 1010,6 hPa 0,0 l/m 18,2 km/h (3 Bft) SW 220 5 min
29.07.2018 11:11 25,1 C 25,8 C 10,8 C 37 % 57 % 1010,6 hPa 0,0 l/m 18,8 km/h (3 Bft) S 175 7 min
29.07.2018 11:16 25,2 C 25,8 C 10,8 C 37 % 57 % 1010,6 hPa 0,0 l/m 15,7 km/h (3 Bft) S-SW 210 3 min
29.07.2018 11:21 25,2 C 25,8 C 10,8 C 37 % 57 % 1010,6 hPa 0,0 l/m 17,6 km/h (3 Bft) S-SW 205 5 min
29.07.2018 11:26 25,3 C 25,8 C 10,8 C 37 % 57 % 1010,6 hPa 0,0 l/m 24,2 km/h (4 Bft) S-SW 205 3 min
29.07.2018 11:31 25,1 C 25,8 C 10,8 C 37 % 57 % 1010,6 hPa 0,0 l/m 19,4 km/h (3 Bft) SW 215 6 min
29.07.2018 11:36 25,3 C 25,8 C 10,8 C 37 % 57 % 1009,6 hPa 0,0 l/m 19,4 km/h (3 Bft) S-SW 195 3 min
29.07.2018 11:41 25,1 C 25,8 C 10,8 C 37 % 57 % 1009,6 hPa 0,0 l/m 18,8 km/h (3 Bft) S-SO 165 5 min
29.07.2018 11:46 25,1 C 25,8 C 10,8 C 37 % 57 % 1009,6 hPa 0,0 l/m 18,8 km/h (3 Bft) S 180 5 min
29.07.2018 11:51 25,5 C 25,8 C 10,8 C 37 % 57 % 1010,6 hPa 0,0 l/m 17,6 km/h (3 Bft) S-SO 150 5 min
29.07.2018 11:55 25,6 C 25,8 C 10,8 C 36 % 57 % 1010,6 hPa 0,0 l/m 18,2 km/h (3 Bft) W 280 5 min
29.07.2018 12:00 25,7 C 25,8 C 10,8 C 36 % 57 % 1010,6 hPa 0,0 l/m 15,7 km/h (3 Bft) S-SW 200 6 min
29.07.2018 12:05 25,5 C 25,8 C 10,8 C 36 % 57 % 1010,6 hPa 0,0 l/m 20,6 km/h (4 Bft) S 185 5 min
29.07.2018 12:10 25,6 C 25,8 C 10,8 C 36 % 57 % 1010,6 hPa 0,0 l/m 17,6 km/h (3 Bft) S 170 5 min
29.07.2018 12:15 25,7 C 25,8 C 10,8 C 36 % 57 % 1010,6 hPa 0,0 l/m 16,9 km/h (3 Bft) S 185 5 min
29.07.2018 12:21 25,6 C 25,8 C 10,8 C 36 % 57 % 1010,6 hPa 0,0 l/m 26,0 km/h (4 Bft) SW 215 5 min
29.07.2018 12:25 25,4 C 25,8 C 10,8 C 36 % 57 % 1010,6 hPa 0,0 l/m 20,6 km/h (4 Bft) S-SO 155 3 min
29.07.2018 12:30 25,9 C 25,8 C 10,8 C 36 % 57 % 1010,6 hPa 0,0 l/m 17,6 km/h (3 Bft) S 185 7 min
29.07.2018 12:35 26,0 C 25,8 C 10,8 C 35 % 57 % 1010,6 hPa 0,0 l/m 23,0 km/h (4 Bft) S 190 3 min
29.07.2018 12:40 25,9 C 25,8 C 10,8 C 35 % 57 % 1010,6 hPa 0,0 l/m 19,4 km/h (3 Bft) S-SW 200 6 min
29.07.2018 12:45 26,2 C 25,8 C 10,8 C 34 % 57 % 1010,6 hPa 0,0 l/m 25,4 km/h (4 Bft) S-SO 160 3 min
29.07.2018 12:50 26,7 C 25,8 C 10,8 C 34 % 57 % 1010,6 hPa 0,0 l/m 26,3 km/h (4 Bft) S-SW 205 5 min
29.07.2018 12:55 26,6 C 25,8 C 10,8 C 34 % 57 % 1010,6 hPa 0,0 l/m 31,3 km/h (5 Bft) S-SO 150 4 min
29.07.2018 13:00 26,9 C 25,8 C 10,8 C 33 % 57 % 1010,6 hPa 0,0 l/m 23,0 km/h (4 Bft) SW 225 6 min
29.07.2018 13:05 26,8 C 25,8 C 10,8 C 33 % 57 % 1009,6 hPa 0,0 l/m 19,4 km/h (3 Bft) SW 220 2 min
29.07.2018 13:10 26,5 C 25,8 C 10,8 C 33 % 57 % 1009,6 hPa 0,0 l/m 30,5 km/h (5 Bft) S-SW 195 5 min
29.07.2018 13:15 26,6 C 25,8 C 10,8 C 32 % 57 % 1009,6 hPa 0,0 l/m 21,2 km/h (4 Bft) S-SO 165 5 min
29.07.2018 13:20 26,9 C 25,8 C 10,8 C 32 % 57 % 1010,6 hPa 0,0 l/m 27,4 km/h (5 Bft) S-SO 165 6 min
29.07.2018 13:25 26,6 C 25,8 C 10,8 C 33 % 57 % 1010,6 hPa 0,0 l/m 18,8 km/h (3 Bft) SW 215 5 min
29.07.2018 13:30 26,5 C 25,8 C 10,8 C 32 % 57 % 1010,6 hPa 0,0 l/m 21,2 km/h (4 Bft) S-SW 210 5 min
29.07.2018 13:35 26,3 C 25,8 C 10,8 C 33 % 57 % 1010,6 hPa 0,0 l/m 22,4 km/h (4 Bft) S-SW 205 5 min
29.07.2018 13:40 26,3 C 25,8 C 10,8 C 33 % 57 % 1010,6 hPa 0,0 l/m 19,4 km/h (3 Bft) SW 215 5 min
29.07.2018 13:45 26,5 C 25,8 C 10,8 C 32 % 57 % 1010,6 hPa 0,0 l/m 27,8 km/h (5 Bft) S 170 5 min
29.07.2018 13:50 26,6 C 25,8 C 10,8 C 32 % 57 % 1009,6 hPa 0,0 l/m 23,0 km/h (4 Bft) O-SO 120 5 min
29.07.2018 13:55 26,5 C 25,8 C 10,8 C 31 % 57 % 1009,6 hPa 0,0 l/m 21,8 km/h (4 Bft) S-SO 160 5 min
29.07.2018 14:00 26,7 C 25,8 C 10,8 C 32 % 57 % 1009,6 hPa 0,0 l/m 26,3 km/h (4 Bft) SO 145 3 min
29.07.2018 14:05 26,4 C 25,8 C 10,8 C 31 % 57 % 1009,6 hPa 0,0 l/m 22,4 km/h (4 Bft) SW 215 0 min
29.07.2018 14:10 26,4 C 25,8 C 10,8 C 31 % 57 % 1009,6 hPa 0,0 l/m 31,3 km/h (5 Bft) SW 230 0 min
29.07.2018 14:15 26,3 C 25,8 C 10,8 C 31 % 57 % 1009,6 hPa 0,0 l/m 22,4 km/h (4 Bft) S-SO 155 0 min
29.07.2018 14:20 26,4 C 25,8 C 10,8 C 32 % 57 % 1009,6 hPa 0,0 l/m 21,2 km/h (4 Bft) SW 215 0 min
29.07.2018 14:25 26,3 C 25,8 C 10,8 C 32 % 57 % 1009,6 hPa 0,0 l/m 18,2 km/h (3 Bft) S-SO 165 0 min
29.07.2018 14:30 26,5 C 25,8 C 10,8 C 32 % 57 % 1009,6 hPa 0,0 l/m 17,6 km/h (3 Bft) S-SO 150 0 min
29.07.2018 14:35 26,4 C 25,8 C 10,8 C 32 % 57 % 1009,6 hPa 0,0 l/m 26,0 km/h (4 Bft) S-SO 165 0 min
29.07.2018 14:40 26,5 C 25,8 C 10,8 C 33 % 57 % 1009,6 hPa 0,0 l/m 21,2 km/h (4 Bft) O-SO 105 0 min
29.07.2018 14:45 26,6 C 25,8 C 10,8 C 33 % 57 % 1009,6 hPa 0,0 l/m 18,8 km/h (3 Bft) S-SO 160 0 min
29.07.2018 14:50 26,6 C 25,8 C 10,8 C 33 % 57 % 1009,6 hPa 0,0 l/m 27,1 km/h (5 Bft) S-SO 165 2 min
29.07.2018 14:55 26,7 C 25,8 C 10,8 C 33 % 57 % 1009,6 hPa 0,0 l/m 27,1 km/h (5 Bft) SO 145 4 min
29.07.2018 15:00 27,0 C 25,8 C 10,8 C 33 % 57 % 1009,6 hPa 0,0 l/m 24,2 km/h (4 Bft) SO 140 6 min
29.07.2018 15:05 26,9 C 25,8 C 10,8 C 33 % 57 % 1010,6 hPa 0,0 l/m 23,6 km/h (4 Bft) S-SO 165 5 min
29.07.2018 15:10 27,0 C 25,8 C 10,8 C 33 % 57 % 1010,6 hPa 0,0 l/m 19,4 km/h (3 Bft) S 190 5 min
29.07.2018 15:15 27,2 C 25,8 C 10,8 C 33 % 57 % 1010,6 hPa 0,0 l/m 21,2 km/h (4 Bft) SO 140 5 min
29.07.2018 15:20 27,2 C 25,8 C 10,8 C 32 % 57 % 1009,6 hPa 0,0 l/m 19,4 km/h (3 Bft) SO 130 2 min
29.07.2018 15:25 27,3 C 25,8 C 10,8 C 32 % 57 % 1009,6 hPa 0,0 l/m 13,3 km/h (3 Bft) S 175 3 min
29.07.2018 15:30 27,4 C 25,8 C 10,8 C 32 % 57 % 1009,6 hPa 0,0 l/m 21,8 km/h (4 Bft) SW 215 0 min
29.07.2018 15:35 27,5 C 25,8 C 10,8 C 32 % 57 % 1009,6 hPa 0,0 l/m 18,2 km/h (3 Bft) S 175 0 min
29.07.2018 15:40 27,6 C 25,8 C 10,8 C 32 % 57 % 1009,6 hPa 0,0 l/m 18,2 km/h (3 Bft) S-SW 200 6 min
29.07.2018 15:45 27,7 C 25,8 C 10,8 C 31 % 57 % 1009,6 hPa 0,0 l/m 24,2 km/h (4 Bft) S-SO 155 3 min
29.07.2018 15:50 27,8 C 25,8 C 10,8 C 31 % 57 % 1008,6 hPa 0,0 l/m 26,3 km/h (4 Bft) S 175 5 min
29.07.2018 15:55 28,3 C 25,8 C 10,8 C 30 % 57 % 1008,6 hPa 0,0 l/m 21,8 km/h (4 Bft) SW 215 5 min
29.07.2018 16:00 28,5 C 25,8 C 10,8 C 30 % 57 % 1008,6 hPa 0,0 l/m 25,4 km/h (4 Bft) W-SW 245 5 min
29.07.2018 16:05 28,5 C 25,8 C 10,8 C 29 % 57 % 1009,6 hPa 0,0 l/m 18,2 km/h (3 Bft) S-SO 155 5 min
29.07.2018 16:10 28,4 C 25,8 C 10,8 C 29 % 57 % 1009,6 hPa 0,0 l/m 18,2 km/h (3 Bft) S 190 5 min
29.07.2018 16:15 28,3 C 25,8 C 10,8 C 29 % 57 % 1009,6 hPa 0,0 l/m 18,8 km/h (3 Bft) S-SO 160 5 min
29.07.2018 16:20 28,9 C 25,8 C 10,8 C 29 % 57 % 1008,6 hPa 0,0 l/m 17,6 km/h (3 Bft) S-SW 205 6 min
29.07.2018 16:25 29,2 C 25,8 C 10,8 C 30 % 57 % 1008,6 hPa 0,0 l/m 23,6 km/h (4 Bft) SW 230 4 min
29.07.2018 16:30 29,1 C 25,8 C 10,8 C 29 % 57 % 1008,6 hPa 0,0 l/m 18,2 km/h (3 Bft) SW 235 5 min
29.07.2018 16:35 28,8 C 25,8 C 10,8 C 30 % 57 % 1008,6 hPa 0,0 l/m 20,0 km/h (4 Bft) S-SO 165 5 min
29.07.2018 16:40 28,5 C 25,8 C 10,8 C 31 % 57 % 1008,6 hPa 0,0 l/m 22,4 km/h (4 Bft) S-SW 205 5 min
29.07.2018 16:45 28,7 C 25,8 C 10,8 C 32 % 57 % 1008,6 hPa 0,0 l/m 17,6 km/h (3 Bft) W-NW 285 6 min
29.07.2018 16:50 29,2 C 25,8 C 10,8 C 31 % 57 % 1008,6 hPa 0,0 l/m 23,6 km/h (4 Bft) S 180 4 min
29.07.2018 16:55 29,5 C 25,8 C 10,8 C 31 % 57 % 1008,6 hPa 0,0 l/m 20,6 km/h (4 Bft) S 185 3 min
29.07.2018 17:00 29,1 C 25,8 C 10,8 C 31 % 57 % 1008,6 hPa 0,0 l/m 20,6 km/h (4 Bft) S-SO 155 4 min
29.07.2018 17:05 29,2 C 25,8 C 10,8 C 31 % 57 % 1008,6 hPa 0,0 l/m 12,7 km/h (3 Bft) S 175 5 min
29.07.2018 17:10 29,3 C 25,8 C 10,8 C 30 % 57 % 1008,6 hPa 0,0 l/m 23,0 km/h (4 Bft) SO 140 5 min
29.07.2018 17:15 29,2 C 25,8 C 10,8 C 29 % 57 % 1008,6 hPa 0,0 l/m 23,0 km/h (4 Bft) SO 140 2 min
29.07.2018 17:20 29,3 C 25,8 C 10,8 C 28 % 57 % 1008,6 hPa 0,0 l/m 21,2 km/h (4 Bft) SW 230 3 min
29.07.2018 17:25 29,3 C 25,8 C 10,8 C 28 % 57 % 1008,6 hPa 0,0 l/m 21,2 km/h (4 Bft) SW 225 4 min
29.07.2018 17:30 29,4 C 25,8 C 10,8 C 28 % 57 % 1008,6 hPa 0,0 l/m 18,8 km/h (3 Bft) S 175 2 min
29.07.2018 17:35 29,2 C 25,8 C 10,8 C 28 % 57 % 1008,6 hPa 0,0 l/m 26,3 km/h (4 Bft) SW 225 1 min
29.07.2018 17:40 29,3 C 25,8 C 10,8 C 28 % 57 % 1008,6 hPa 0,0 l/m 18,2 km/h (3 Bft) NW 325 1 min
29.07.2018 17:45 29,3 C 25,8 C 10,8 C 28 % 57 % 1008,6 hPa 0,0 l/m 23,0 km/h (4 Bft) S 180 2 min
29.07.2018 17:50 29,9 C 25,8 C 10,8 C 27 % 57 % 1008,6 hPa 0,0 l/m 18,8 km/h (3 Bft) S-SW 200 2 min
29.07.2018 17:55 30,1 C 25,8 C 10,8 C 27 % 57 % 1008,6 hPa 0,0 l/m 21,8 km/h (4 Bft) S-SW 200 4 min
29.07.2018 18:00 30,1 C 25,8 C 10,8 C 27 % 57 % 1008,6 hPa 0,0 l/m 22,4 km/h (4 Bft) SO 140 4 min
29.07.2018 18:05 30,1 C 25,8 C 10,8 C 27 % 57 % 1008,6 hPa 0,0 l/m 29,0 km/h (5 Bft) S-SW 210 4 min
29.07.2018 18:10 29,8 C 25,8 C 10,8 C 28 % 57 % 1008,6 hPa 0,0 l/m 21,2 km/h (4 Bft) S-SW 205 6 min
29.07.2018 18:15 30,1 C 25,8 C 10,8 C 28 % 57 % 1008,6 hPa 0,0 l/m 20,0 km/h (4 Bft) SW 225 4 min
29.07.2018 18:20 30,0 C 25,8 C 10,8 C 28 % 57 % 1008,6 hPa 0,0 l/m 24,8 km/h (4 Bft) S 175 6 min
29.07.2018 18:25 30,0 C 25,8 C 10,8 C 28 % 57 % 1008,6 hPa 0,0 l/m 23,6 km/h (4 Bft) S-SW 200 4 min
29.07.2018 18:30 30,3 C 25,8 C 10,8 C 28 % 57 % 1008,6 hPa 0,0 l/m 16,9 km/h (3 Bft) S-SW 195 1 min
29.07.2018 18:35 30,5 C 25,8 C 10,8 C 28 % 57 % 1008,6 hPa 0,0 l/m 17,6 km/h (3 Bft) S-SW 195 5 min
29.07.2018 18:40 30,1 C 25,8 C 10,8 C 28 % 57 % 1008,6 hPa 0,0 l/m 22,4 km/h (4 Bft) S 175 2 min
29.07.2018 18:45 30,1 C 25,8 C 10,8 C 28 % 57 % 1008,6 hPa 0,0 l/m 10,3 km/h (2 Bft) S-SO 165 1 min
29.07.2018 18:50 29,8 C 25,8 C 10,8 C 28 % 57 % 1008,6 hPa 0,0 l/m 14,5 km/h (3 Bft) S 180 0 min
29.07.2018 18:55 29,8 C 25,8 C 10,8 C 28 % 57 % 1008,6 hPa 0,0 l/m 14,5 km/h (3 Bft) S 175 0 min
29.07.2018 19:00 29,6 C 25,8 C 10,8 C 29 % 57 % 1008,6 hPa 0,0 l/m 15,1 km/h (3 Bft) S-SO 160 0 min
29.07.2018 19:05 29,5 C 25,8 C 10,8 C 28 % 57 % 1007,6 hPa 0,0 l/m 21,8 km/h (4 Bft) SW 220 0 min
29.07.2018 19:10 29,4 C 25,8 C 10,8 C 29 % 57 % 1007,6 hPa 0,0 l/m 12,7 km/h (3 Bft) S-SW 200 0 min
29.07.2018 19:15 29,4 C 25,8 C 10,8 C 29 % 57 % 1007,6 hPa 0,0 l/m 13,3 km/h (3 Bft) S-SW 205 0 min
29.07.2018 19:20 29,4 C 25,8 C 10,8 C 28 % 57 % 1007,6 hPa 0,0 l/m 14,5 km/h (3 Bft) S 180 0 min
29.07.2018 19:25 29,3 C 25,8 C 10,8 C 28 % 57 % 1007,6 hPa 0,0 l/m 18,8 km/h (3 Bft) SW 235 0 min
29.07.2018 19:30 29,4 C 25,8 C 10,8 C 28 % 57 % 1007,6 hPa 0,0 l/m 10,9 km/h (2 Bft) S 190 0 min
29.07.2018 19:35 29,4 C 25,8 C 10,8 C 28 % 57 % 1007,6 hPa 0,0 l/m 17,6 km/h (3 Bft) S 185 0 min
29.07.2018 19:40 29,4 C 25,8 C 10,8 C 28 % 57 % 1007,6 hPa 0,0 l/m 16,3 km/h (3 Bft) S-SW 200 0 min
29.07.2018 19:45 29,4 C 25,8 C 10,8 C 28 % 57 % 1007,6 hPa 0,0 l/m 14,5 km/h (3 Bft) SW 225 0 min
29.07.2018 19:50 29,4 C 25,8 C 10,8 C 28 % 57 % 1007,6 hPa 0,0 l/m 16,3 km/h (3 Bft) SW 235 0 min
29.07.2018 19:55 29,3 C 25,8 C 10,8 C 28 % 57 % 1007,6 hPa 0,0 l/m 19,4 km/h (3 Bft) SW 215 0 min
29.07.2018 20:00 29,2 C 25,8 C 10,8 C 29 % 57 % 1007,6 hPa 0,0 l/m 14,5 km/h (3 Bft) W-SW 250 0 min
29.07.2018 20:05 29,1 C 25,8 C 10,8 C 29 % 57 % 1008,6 hPa 0,0 l/m 12,1 km/h (2 Bft) SW 215 0 min
29.07.2018 20:10 29,0 C 25,8 C 10,8 C 29 % 57 % 1008,6 hPa 0,0 l/m 10,3 km/h (2 Bft) S 185 0 min
29.07.2018 20:15 28,9 C 25,8 C 10,8 C 30 % 57 % 1008,6 hPa 0,0 l/m 16,3 km/h (3 Bft) SW 235 0 min
29.07.2018 20:20 28,8 C 25,8 C 10,8 C 30 % 57 % 1008,6 hPa 0,0 l/m 15,7 km/h (3 Bft) SW 220 0 min
29.07.2018 20:25 28,8 C 25,8 C 10,8 C 30 % 57 % 1008,6 hPa 0,0 l/m 14,5 km/h (3 Bft) NW 315 0 min
29.07.2018 20:30 28,7 C 25,8 C 10,8 C 30 % 57 % 1008,6 hPa 0,0 l/m 13,9 km/h (3 Bft) W-NW 295 0 min
29.07.2018 20:35 28,6 C 25,8 C 10,8 C 30 % 57 % 1008,6 hPa 0,0 l/m 14,5 km/h (3 Bft) SW 235 0 min
29.07.2018 20:40 28,5 C 25,8 C 10,8 C 30 % 57 % 1008,6 hPa 0,0 l/m 15,1 km/h (3 Bft) NW 325 0 min
29.07.2018 20:45 28,5 C 25,8 C 10,8 C 30 % 57 % 1008,6 hPa 0,0 l/m 14,5 km/h (3 Bft) NW 325 0 min
29.07.2018 20:50 28,4 C 25,8 C 10,8 C 31 % 57 % 1008,6 hPa 0,0 l/m 16,9 km/h (3 Bft) NW 315 0 min
29.07.2018 20:55 28,4 C 25,8 C 10,8 C 31 % 57 % 1008,6 hPa 0,0 l/m 15,1 km/h (3 Bft) W-SW 240 0 min
29.07.2018 21:00 28,3 C 25,8 C 10,8 C 31 % 57 % 1008,6 hPa 0,0 l/m 11,5 km/h (2 Bft) W 260 0 min
29.07.2018 21:05 28,2 C 25,8 C 10,8 C 31 % 57 % 1008,6 hPa 0,0 l/m 11,5 km/h (2 Bft) NW 320 0 min
29.07.2018 21:10 28,2 C 25,8 C 10,8 C 31 % 57 % 1008,6 hPa 0,0 l/m 11,5 km/h (2 Bft) W 275 0 min
29.07.2018 21:15 28,1 C 25,8 C 10,8 C 32 % 57 % 1008,6 hPa 0,0 l/m 11,5 km/h (2 Bft) W-SW 255 0 min
29.07.2018 21:20 28,0 C 25,8 C 10,8 C 32 % 57 % 1009,6 hPa 0,0 l/m 13,3 km/h (3 Bft) W-SW 250 0 min
29.07.2018 21:25 27,9 C 25,8 C 10,8 C 32 % 57 % 1009,6 hPa 0,0 l/m 9,1 km/h (2 Bft) S-SW 210 0 min
29.07.2018 21:30 27,8 C 25,8 C 10,8 C 32 % 57 % 1009,6 hPa 0,0 l/m 7,3 km/h (2 Bft) S 190 0 min
29.07.2018 21:35 27,8 C 25,8 C 10,8 C 32 % 57 % 1009,6 hPa 0,0 l/m 9,7 km/h (2 Bft) W-SW 245 0 min
29.07.2018 21:40 27,8 C 25,8 C 10,8 C 33 % 57 % 1009,6 hPa 0,0 l/m 12,1 km/h (2 Bft) W-SW 255 0 min
29.07.2018 21:45 27,7 C 25,8 C 10,8 C 33 % 57 % 1009,6 hPa 0,0 l/m 12,1 km/h (2 Bft) W 260 0 min
29.07.2018 21:50 27,6 C 25,8 C 10,8 C 33 % 57 % 1009,6 hPa 0,0 l/m 7,9 km/h (2 Bft) W 265 0 min
29.07.2018 21:55 27,6 C 25,8 C 10,8 C 33 % 57 % 1009,6 hPa 0,0 l/m 9,7 km/h (2 Bft) SW 230 0 min
29.07.2018 22:00 27,6 C 25,8 C 10,8 C 33 % 57 % 1009,6 hPa 0,0 l/m 9,7 km/h (2 Bft) SW 235 0 min
29.07.2018 22:05 27,5 C 25,8 C 10,8 C 34 % 57 % 1009,6 hPa 0,0 l/m 7,9 km/h (2 Bft) W-SW 245 0 min
29.07.2018 22:10 27,3 C 25,8 C 10,8 C 34 % 57 % 1009,6 hPa 0,0 l/m 6,7 km/h (2 Bft) SW 225 0 min
29.07.2018 22:15 27,3 C 25,8 C 10,8 C 34 % 57 % 1009,6 hPa 0,0 l/m 9,7 km/h (2 Bft) W-SW 250 0 min
29.07.2018 22:20 27,3 C 25,8 C 10,8 C 34 % 57 % 1009,6 hPa 0,0 l/m 6,1 km/h (2 Bft) W 275 0 min
29.07.2018 22:25 27,0 C 25,8 C 10,8 C 35 % 57 % 1009,6 hPa 0,0 l/m 16,3 km/h (3 Bft) W 275 0 min
29.07.2018 22:30 27,0 C 25,8 C 10,8 C 35 % 57 % 1009,6 hPa 0,0 l/m 22,4 km/h (4 Bft) W 270 0 min
29.07.2018 22:35 26,8 C 25,8 C 10,8 C 35 % 57 % 1009,6 hPa 0,0 l/m 16,9 km/h (3 Bft) N-NW 330 0 min
29.07.2018 22:40 26,5 C 25,8 C 10,8 C 36 % 57 % 1009,6 hPa 0,0 l/m 15,1 km/h (3 Bft) NW 315 0 min
29.07.2018 22:45 26,4 C 25,8 C 10,8 C 36 % 57 % 1009,6 hPa 0,0 l/m 13,3 km/h (3 Bft) W 280 0 min
29.07.2018 22:50 26,3 C 25,8 C 10,8 C 36 % 57 % 1010,6 hPa 0,0 l/m 13,9 km/h (3 Bft) W-NW 285 0 min
29.07.2018 22:55 26,1 C 25,8 C 10,8 C 37 % 57 % 1010,6 hPa 0,0 l/m 11,5 km/h (2 Bft) W-NW 300 0 min
29.07.2018 23:00 26,1 C 25,8 C 10,8 C 37 % 57 % 1010,6 hPa 0,0 l/m 9,7 km/h (2 Bft) W 275 0 min
29.07.2018 23:05 26,0 C 25,8 C 10,8 C 37 % 57 % 1010,6 hPa 0,0 l/m 7,9 km/h (2 Bft) NW 305 0 min
29.07.2018 23:10 25,9 C 25,8 C 10,8 C 37 % 57 % 1010,6 hPa 0,0 l/m 6,1 km/h (2 Bft) W-NW 300 0 min
29.07.2018 23:15 25,8 C 25,8 C 10,8 C 38 % 57 % 1010,6 hPa 0,0 l/m 9,1 km/h (2 Bft) W 265 0 min
29.07.2018 23:20 25,7 C 25,8 C 10,8 C 38 % 57 % 1010,6 hPa 0,0 l/m 8,5 km/h (2 Bft) W 280 0 min
29.07.2018 23:25 25,6 C 25,8 C 10,8 C 38 % 57 % 1010,6 hPa 0,0 l/m 7,9 km/h (2 Bft) N 355 0 min
29.07.2018 23:30 25,6 C 25,8 C 10,8 C 38 % 57 % 1010,6 hPa 0,0 l/m 8,5 km/h (2 Bft) W-NW 300 0 min
29.07.2018 23:35 25,6 C 25,8 C 10,8 C 38 % 57 % 1010,6 hPa 0,0 l/m 3,0 km/h (1 Bft) W-NW 290 0 min
29.07.2018 23:40 25,6 C 25,8 C 10,8 C 38 % 57 % 1010,6 hPa 0,0 l/m 4,8 km/h (1 Bft) W-NW 295 0 min
29.07.2018 23:45 25,5 C 25,8 C 10,8 C 38 % 57 % 1010,6 hPa 0,0 l/m 3,0 km/h (1 Bft) W-NW 295 0 min
29.07.2018 23:50 25,5 C 25,8 C 10,8 C 39 % 57 % 1010,6 hPa 0,0 l/m 1,8 km/h (1 Bft) W 280 0 min
29.07.2018 23:55 25,4 C 25,8 C 10,8 C 39 % 57 % 1010,6 hPa 0,0 l/m 3,0 km/h (1 Bft) W 270 0 min
_ Min-Zeit 05:45 00:00 00:00 17:50 00:00 19:05 - 03:25 - - -
Minimum _ 19,3 C 25,8 C 10,8 C 27 % 57 % 1007,6 hPa - 0,0 km/h (0 Bft) - - -
_ Max-Zeit 18:35 00:00 00:00 06:00 00:00 01:50 00:00 12:55 - - 10:45
Maximum _ 30,5 C 25,8 C 10,8 C 72 % 57 % 1012,6 hPa 0,0 l/m 31,3 km/h
S-SO (5 Bft)
- - 10 min
Durchschnitt _ 24,4 C 25,8 C 10,8 C 44 % 57 % 1010,1 hPa #0,0 l/m 14,4 km/h (3 Bft) S - #8:23 h